Hourly Weather Tobol'sk

Today, 30 September, Wednesday

Time Temperature Precipitation Wind Pressure Humidity
00:00 +4°C° 0 mm 2 mps 770 mmHg 75%
01:00 +4°C° 0 mm 2 mps 770 mmHg 74%
02:00 +4°C° 0 mm 2 mps 769 mmHg 74%
03:00 +4°C° 0 mm 2 mps 769 mmHg 75%
04:00 +4°C° 0 mm 2 mps 769 mmHg 77%
05:00 +4°C° 0 mm 2 mps 769 mmHg 78%
06:00 +4°C° 0 mm 3 mps 769 mmHg 79%
07:00 +4°C° 0 mm 3 mps 768 mmHg 80%
08:00 +5°C° 0 mm 3 mps 768 mmHg 80%
09:00 +7°C° 0 mm 3 mps 768 mmHg 80%
10:00 +9°C° 0 mm 3 mps 768 mmHg 80%
11:00 +10°C° 0 mm 3 mps 768 mmHg 80%
12:00 +11°C° 0 mm 3 mps 767 mmHg 78%
13:00 +12°C° 0 mm 3 mps 767 mmHg 76%
14:00 +13°C° 0 mm 3 mps 767 mmHg 74%
15:00 +14°C° 0 mm 2 mps 767 mmHg 77%
16:00 +13°C° 0 mm 2 mps 767 mmHg 79%
17:00 +13°C° 0 mm 1 mps 767 mmHg 81%
18:00 +12°C° 0 mm 1 mps 767 mmHg 85%
19:00 +11°C° 0 mm 1 mps 767 mmHg 89%
20:00 +10°C° 0 mm 1 mps 767 mmHg 93%
21:00 +10°C° 0 mm 1 mps 767 mmHg 93%
22:00 +10°C° 0 mm 1 mps 768 mmHg 93%
23:00 +10°C° 0 mm 1 mps 768 mmHg 93%

Tomorrow, 1 October, Thursday

Time Temperature Precipitation Wind Pressure Humidity
00:00 +10°C° 0 mm 1 mps 768 mmHg 94%
01:00 +9°C° 0 mm 1 mps 768 mmHg 94%
02:00 +9°C° 0 mm 1 mps 768 mmHg 95%
03:00 +8°C° 0 mm 1 mps 768 mmHg 95%
04:00 +8°C° 0 mm 1 mps 768 mmHg 95%
05:00 +8°C° 0 mm 1 mps 768 mmHg 96%
06:00 +8°C° 0 mm 1 mps 768 mmHg 95%
07:00 +8°C° 0 mm 1 mps 768 mmHg 94%
08:00 +8°C° 0 mm 1 mps 768 mmHg 93%
09:00 +10°C° 0 mm 1 mps 768 mmHg 86%
10:00 +12°C° 0 mm 1 mps 768 mmHg 79%
11:00 +13°C° 0 mm 2 mps 768 mmHg 72%
12:00 +14°C° 0 mm 2 mps 768 mmHg 68%
13:00 +15°C° 0 mm 2 mps 767 mmHg 65%
14:00 +16°C° 0 mm 2 mps 767 mmHg 61%
15:00 +16°C° 0 mm 2 mps 767 mmHg 65%
16:00 +15°C° 0 mm 2 mps 767 mmHg 69%
17:00 +14°C° 0 mm 1 mps 767 mmHg 73%
18:00 +13°C° 0 mm 1 mps 767 mmHg 78%
19:00 +12°C° 0 mm 1 mps 767 mmHg 83%
20:00 +10°C° 0 mm 1 mps 767 mmHg 89%
21:00 +10°C° 0 mm 1 mps 767 mmHg 90%
22:00 +10°C° 0 mm 1 mps 767 mmHg 91%
23:00 +9°C° 0 mm 1 mps 767 mmHg 92%

Day after tomorrow, 2 October, Friday

Time Temperature Precipitation Wind Pressure Humidity
00:00 +9°C° 0 mm 1 mps 766 mmHg 92%
01:00 +9°C° 0 mm 1 mps 766 mmHg 93%
02:00 +8°C° 0 mm 1 mps 766 mmHg 93%
03:00 +7°C° 0 mm 2 mps 766 mmHg 93%
04:00 +7°C° 0 mm 2 mps 766 mmHg 94%
05:00 +6°C° 0 mm 2 mps 766 mmHg 94%
06:00 +7°C° 0 mm 2 mps 765 mmHg 93%
07:00 +7°C° 0 mm 2 mps 765 mmHg 93%
08:00 +7°C° 0 mm 2 mps 765 mmHg 92%
09:00 +9°C° 0 mm 2 mps 764 mmHg 86%
10:00 +12°C° 0 mm 2 mps 764 mmHg 80%
11:00 +13°C° 0 mm 2 mps 764 mmHg 74%
12:00 +14°C° 0 mm 2 mps 764 mmHg 69%
13:00 +16°C° 0 mm 3 mps 763 mmHg 64%
14:00 +17°C° 0 mm 3 mps 763 mmHg 59%
15:00 +16°C° 0 mm 2 mps 763 mmHg 63%
16:00 +15°C° 0 mm 2 mps 762 mmHg 67%
17:00 +15°C° 0 mm 2 mps 762 mmHg 72%
18:00 +13°C° 0 mm 2 mps 762 mmHg 78%
19:00 +12°C° 0 mm 2 mps 761 mmHg 84%
20:00 +10°C° 0 mm 2 mps 761 mmHg 90%
21:00 +9°C° 0 mm 2 mps 761 mmHg 91%
22:00 +9°C° 0 mm 2 mps 761 mmHg 93%
23:00 +8°C° 0 mm 2 mps 760 mmHg 95%

3 October, Saturday

Time Temperature Precipitation Wind Pressure Humidity
00:00 +8°C° 0 mm 2 mps 760 mmHg 95%
01:00 +8°C° 0 mm 2 mps 760 mmHg 96%
02:00 +8°C° 0 mm 2 mps 760 mmHg 96%
03:00 +8°C° 0 mm 2 mps 759 mmHg 96%
04:00 +7°C° 0 mm 2 mps 759 mmHg 96%
05:00 +7°C° 0 mm 3 mps 759 mmHg 96%
06:00 +8°C° 0 mm 3 mps 759 mmHg 94%
07:00 +8°C° 0 mm 3 mps 759 mmHg 92%
08:00 +8°C° 0 mm 3 mps 759 mmHg 90%
09:00 +8°C° 0.1 mm 4 mps 759 mmHg 85%
10:00 +10°C° 0.1 mm 4 mps 759 mmHg 80%
11:00 +11°C° 0.1 mm 4 mps 759 mmHg 74%
12:00 +9°C° 0.1 mm 5 mps 760 mmHg 69%
13:00 +8°C° 0.1 mm 5 mps 760 mmHg 65%
14:00 +8°C° 0.1 mm 5 mps 760 mmHg 60%
15:00 +7°C° 0 mm 5 mps 761 mmHg 60%
16:00 +6°C° 0 mm 5 mps 761 mmHg 61%
17:00 +5°C° 0 mm 5 mps 762 mmHg 61%
18:00 +3°C° 0 mm 5 mps 763 mmHg 68%
19:00 +2°C° 0 mm 5 mps 763 mmHg 74%
20:00 +1°C° 0 mm 5 mps 764 mmHg 81%
21:00 +1°C° 0 mm 4 mps 765 mmHg 79%
22:00 0°C° 0 mm 4 mps 765 mmHg 78%
23:00 0°C° 0 mm 3 mps 765 mmHg 76%

4 October, Sunday

Time Temperature Precipitation Wind Pressure Humidity
00:00 0°C° 0 mm 3 mps 766 mmHg 77%
01:00 -1°C° 0 mm 2 mps 766 mmHg 78%
02:00 -2°C° 0 mm 2 mps 766 mmHg 79%
03:00 -2°C° 0 mm 2 mps 766 mmHg 81%
04:00 -2°C° 0 mm 2 mps 767 mmHg 82%
05:00 -2°C° 0 mm 2 mps 767 mmHg 84%
06:00 -2°C° 0 mm 3 mps 767 mmHg 81%
07:00 -1°C° 0 mm 3 mps 767 mmHg 79%
08:00 -1°C° 0 mm 3 mps 767 mmHg 77%
09:00 0°C° 0 mm 3 mps 767 mmHg 70%
10:00 +1°C° 0 mm 4 mps 767 mmHg 63%
11:00 +3°C° 0 mm 4 mps 767 mmHg 57%
12:00 +3°C° 0 mm 4 mps 767 mmHg 55%
13:00 +4°C° 0 mm 4 mps 767 mmHg 52%
14:00 +4°C° 0 mm 4 mps 767 mmHg 50%
15:00 +4°C° 0 mm 3 mps 767 mmHg 53%
16:00 +3°C° 0 mm 3 mps 767 mmHg 55%
17:00 +4°C° 0 mm 2 mps 767 mmHg 58%
18:00 +3°C° 0 mm 2 mps 767 mmHg 63%
19:00 +1°C° 0 mm 2 mps 767 mmHg 67%
20:00 -1°C° 0 mm 2 mps 767 mmHg 71%
21:00 -1°C° 0 mm 2 mps 767 mmHg 72%
22:00 -1°C° 0 mm 2 mps 767 mmHg 73%
23:00 -1°C° 0 mm 2 mps 767 mmHg 74%

5 October, Monday

Time Temperature Precipitation Wind Pressure Humidity
00:00 -1°C° 0 mm 2 mps 767 mmHg 75%
01:00 -1°C° 0 mm 2 mps 767 mmHg 75%
02:00 -1°C° 0 mm 2 mps 766 mmHg 76%
03:00 -1°C° 0 mm 2 mps 766 mmHg 76%
04:00 -1°C° 0 mm 2 mps 766 mmHg 76%
05:00 -1°C° 0 mm 2 mps 766 mmHg 76%
06:00 -1°C° 0 mm 2 mps 765 mmHg 76%
07:00 -1°C° 0 mm 3 mps 765 mmHg 76%
08:00 -1°C° 0 mm 3 mps 765 mmHg 76%
09:00 0°C° 0 mm 3 mps 764 mmHg 72%
10:00 +1°C° 0 mm 3 mps 764 mmHg 67%
11:00 +2°C° 0 mm 3 mps 764 mmHg 63%
12:00 +3°C° 0 mm 4 mps 763 mmHg 60%
13:00 +4°C° 0 mm 4 mps 763 mmHg 58%
14:00 +5°C° 0 mm 4 mps 763 mmHg 55%
15:00 +4°C° 0 mm 4 mps 762 mmHg 58%
16:00 +4°C° 0 mm 3 mps 762 mmHg 61%
17:00 +3°C° 0 mm 3 mps 762 mmHg 64%
18:00 +3°C° 0 mm 3 mps 762 mmHg 69%
19:00 +2°C° 0 mm 3 mps 761 mmHg 74%
20:00 +1°C° 0 mm 3 mps 761 mmHg 79%
21:00 +1°C° 0 mm 3 mps 761 mmHg 81%
22:00 0°C° 0 mm 3 mps 761 mmHg 83%
23:00 0°C° 0 mm 3 mps 760 mmHg 85%
Show more